Flag for Peru Weather past 2 weeks in Arequipa, Arequipa, Peru

Now
63 °F

Sunny.


Feels Like: 63 °F
Forecast: 50 / 74 °F
Wind: 17 mph from East

Location: Arequipa Airport

Current Time: Jul 31, 2014 at 8:15:23 AM

Latest Report: Jul 31, 2014 at 8:00 AM


Visibility: 10 mi

Pressure: 30.36 "Hg

Humidity: 16%

Dew point: 16 °F

Location of ArequipaLocation

Historic Weather in Arequipa — Graph

°F

Arequipa temperature yesterday

Maximum temperature yesterday: 73 °F (at 10:00 AM)
Minimum temperature yesterday: 55 °F (at 9:00 PM)
Average temperature yesterday: 63 °F

Past Weeks' High & Low Weather Summary

 TemperatureHumidityPressure
High75 °F (Jul 29, 12:00 PM)64% (Jul 20, 9:00 AM)30.39 "Hg (Jul 20, 9:00 AM)
Low45 °F (Jul 23, 6:00 AM)4% (Jul 24, 11:00 AM)30.18 "Hg (Jul 24, 2:00 PM)
Average59 °F16%30.32 "Hg
* Reported Jul 16 7:00 AM — Jul 31 7:00 AM, Arequipa, Weather by CustomWeather, © 2014

Note: Actual official high and low records may vary slightly from our data, if they occured in-between our weather recording intervals... More about our weather records

Advertising

Arequipa weather history for previous 24 hours

 ConditionsComfort  
Time TempWeatherWind HumidityBarometerVisibility
7:00 AM
Jul 31
54 °FSunny.14 mph21%30.36 "Hg10 mi
6:00 AM50 °FClear.10 mph24%30.36 "Hg10 mi
5:00 AM50 °FClear.12 mph24%30.36 "Hg10 mi
3:00 AM52 °FClear.14 mph24%30.36 "Hg10 mi
2:00 AM50 °FClear.10 mph25%30.36 "Hg10 mi
1:00 AM52 °FClear.6 mph24%30.36 "Hg10 mi
12:00 AM52 °FClear.5 mph24%30.36 "Hg10 mi
11:00 PM
Jul 30
57 °FClear.6 mph20%30.36 "Hg10 mi
10:00 PM55 °FClear.No wind23%30.39 "Hg10 mi
9:00 PM55 °FClear.No wind23%30.36 "Hg10 mi
8:00 PM59 °FClear.8 mph20%30.36 "Hg10 mi
7:00 PM59 °FClear.5 mph20%30.36 "Hg10 mi
2:00 PM72 °FSunny.14 mph12%30.33 "Hg10 mi
1:00 PM73 °FPassing clouds.12 mph11%30.33 "HgN/A
12:00 PM73 °FPassing clouds.9 mph12%30.36 "HgN/A
11:00 AM73 °FPassing clouds.9 mph13%30.39 "HgN/A
10:00 AM73 °FSunny.3 mph14%30.39 "Hg10 mi
9:00 AM70 °FSunny.14 mph17%30.39 "Hg10 mi
8:00 AM66 °FSunny.18 mph21%30.39 "Hg10 mi
Weather by CustomWeather, © 2014

See weather overviewHow to use our weather pages